Flight Track Log - Related Links

Times and Time Zones

All times are in EST time to prevent confusion due to time zone crossing. See the EJA922 flight status page for this flight to view local times or setup timezone preferences in your user account.

Time Position Orientation Groundspeed Altitude Reporting Facility
EST Latitude Longitude Course Direction KTS MPH feet Rate Location/Type
Wed 03:50:25 PM 42.7619 -73.8039 289° West 179 206 1,300  Level Boston Center
Wed 03:51:44 PM 42.7806 -73.8772 289° West 263 303 7,400 4,620 Climbing Boston Center
Wed 03:52:05 PM 42.7528 -73.8808 185° South 263 303 9,000 2,600 Climbing Boston Center
Wed 03:52:44 PM 42.7017 -73.8739 174° South 314 361 10,000 1,100 Climbing Boston Center
Wed 03:53:05 PM 42.6656 -73.8775 184° South 339 390 10,100 73 Climbing Boston Center
Wed 03:54:06 PM 42.5658 -73.9383 204° Southwest 392 451 10,100  Level Boston Center
Wed 03:55:09 PM 42.4708 -74.0092 209° Southwest 392 451 10,100  Level Boston Center
Wed 03:56:08 PM 42.3753 -74.0797 209° Southwest 391 450 10,100  Level Boston Center
Wed 03:57:09 PM 42.2711 -74.1553 208° Southwest 392 451 10,100  Level Boston Center
Wed 03:58:10 PM 42.1956 -74.2128 209° Southwest 312 359 10,100  Level Boston Center
Wed 03:59:13 PM 42.1258 -74.2631 208° Southwest 290 334 10,100  Level Boston Center
Wed 04:00:14 PM 42.0603 -74.3214 213° Southwest 288 331 10,100 -50 Level Boston Center
Wed 04:01:14 PM 42.0200 -74.4108 239° Southwest 282 325 10,000 -50 Descending Boston Center
Wed 04:02:15 PM 41.9750 -74.5064 238° Southwest 283 326 10,000  Level Boston Center
Wed 04:03:17 PM 41.9331 -74.5944 237° Southwest 283 326 10,000  Level Boston Center
Wed 04:04:16 PM 41.8578 -74.6192 194° South 296 341 10,000  Level Boston Center
Wed 04:05:19 PM 41.7742 -74.6117 176° South 300 345 10,000 -48 Level Boston Center
Wed 04:06:20 PM 41.6844 -74.6081 178° South 300 345 9,900 -893 Descending Boston Center
Wed 04:07:20 PM 41.6025 -74.6036 178° South 300 345 8,200 -1,600 Descending Boston Center
Wed 04:08:20 PM 41.5250 -74.5992 178° South 285 328 6,700 -1,073 Descending Boston Center
Wed 04:09:23 PM 41.4469 -74.5947 178° South 283 326 6,000 -339 Descending Boston Center
Wed 04:10:24 PM 41.3617 -74.6114 188° South 293 337 6,000  Level Boston Center
Wed 04:11:25 PM 41.2844 -74.6411 196° South 292 336 6,000  Level Boston Center
Wed 04:12:25 PM 41.2094 -74.6675 195° South 283 326 6,000 -590 Level Boston Center
Wed 04:13:27 PM 41.1306 -74.6653 179° South 285 328 4,800 -984 Descending Boston Center
Wed 04:14:27 PM 41.0586 -74.6286 159° South 260 299 4,000 -744 Descending Boston Center
Wed 04:15:28 PM 40.9942 -74.5931 157° South 252 290 3,300 -465 Descending Boston Center
Wed 04:16:36 PM 40.9167 -74.5500 157° South 258 297 3,000 -134 Descending New York TRACON
Wed 04:17:42 PM 40.8500 -74.5000 150° Southeast 232 267 3,000  Level New York TRACON
Wed 04:18:42 PM 40.8167 -74.4333 123° Southeast 229 264 3,000 -158 Level New York TRACON
Wed 04:19:36 PM 40.7833 -74.3833 131° Southeast 224 258 2,700 -500 Descending New York TRACON
Wed 04:20:42 PM 40.7333 -74.3167 135° Southeast 197 227 2,000 -571 Descending New York TRACON
Wed 04:21:42 PM 40.7333 -74.2333 90° East 201 231 1,500 -263 Descending New York TRACON
Wed 04:22:36 PM 40.7667 -74.1833 49° Northeast 188 216 1,500  Level New York TRACON
Wed 04:23:42 PM 40.8000 -74.1333 49° Northeast 181 208 1,500 -250 Level New York TRACON
Wed 04:24:36 PM 40.8167 -74.0833 66° East 144 166 1,000 -556 Descending New York TRACON

Login

Don't have an account? Register now (free) for customized features, flight alerts, and more!